TimeAKST,TemperatureF,Dew PointF,Humidity,Sea Level PressureIn,VisibilityMPH,Wind Direction,Wind SpeedMPH,Gust SpeedMPH,PrecipitationIn,Events,Conditions,WindDirDegrees,DateUTC
12:16 AM,35.6,32.0,87,29.64,10.0,SE,8.1,-,N/A,,Overcast,130,2013-01-08 09:16:00
12:36 AM,37.4,32.0,81,29.64,10.0,SE,11.5,16.1,N/A,,Overcast,140,2013-01-08 09:36:00
12:56 AM,37.4,32.0,81,29.64,8.0,SE,8.1,-,N/A,,Overcast,130,2013-01-08 09:56:00
1:16 AM,35.6,30.2,81,29.65,10.0,SE,6.9,-,N/A,,Overcast,130,2013-01-08 10:16:00
1:36 AM,35.6,30.2,81,29.65,10.0,SE,13.8,-,N/A,,Overcast,130,2013-01-08 10:36:00
1:56 AM,35.6,30.2,81,29.66,10.0,SE,9.2,-,N/A,,Mostly Cloudy,140,2013-01-08 10:56:00
2:16 AM,35.6,30.2,81,29.66,10.0,SE,8.1,-,N/A,,Mostly Cloudy,130,2013-01-08 11:16:00
2:36 AM,35.6,30.2,81,29.66,10.0,SSE,5.8,-,N/A,,Mostly Cloudy,150,2013-01-08 11:36:00
2:56 AM,35.6,30.2,81,29.66,10.0,SE,6.9,-,N/A,,Overcast,130,2013-01-08 11:56:00
3:16 AM,35.6,30.2,81,29.67,10.0,ESE,10.4,-,N/A,,Overcast,120,2013-01-08 12:16:00
3:36 AM,33.8,30.2,87,29.66,10.0,ESE,5.8,-,N/A,,Overcast,110,2013-01-08 12:36:00
3:56 AM,35.6,30.2,81,29.66,10.0,ESE,5.8,-,N/A,,Scattered Clouds,110,2013-01-08 12:56:00
4:16 AM,35.6,32.0,87,29.66,10.0,ESE,9.2,-,N/A,,Scattered Clouds,120,2013-01-08 13:16:00
4:36 AM,35.6,30.2,81,29.66,10.0,SE,6.9,-,N/A,,Overcast,130,2013-01-08 13:36:00
4:56 AM,35.6,32.0,87,29.66,10.0,SE,10.4,-,N/A,,Mostly Cloudy,130,2013-01-08 13:56:00
5:16 AM,35.6,30.2,81,29.66,10.0,SE,8.1,-,N/A,,Mostly Cloudy,140,2013-01-08 14:16:00
5:36 AM,35.6,30.2,81,29.66,10.0,ESE,6.9,-,N/A,,Overcast,120,2013-01-08 14:36:00
5:56 AM,35.6,30.2,81,29.65,10.0,SE,6.9,-,N/A,,Scattered Clouds,130,2013-01-08 14:56:00
6:16 AM,35.6,30.2,81,29.65,10.0,SE,8.1,-,N/A,,Partly Cloudy,140,2013-01-08 15:16:00
6:36 AM,35.6,30.2,81,29.66,10.0,SE,6.9,-,N/A,,Mostly Cloudy,130,2013-01-08 15:36:00
6:56 AM,35.6,30.2,81,29.66,10.0,SE,6.9,-,N/A,,Overcast,130,2013-01-08 15:56:00
7:16 AM,35.6,30.2,81,29.66,10.0,SE,10.4,-,N/A,,Overcast,140,2013-01-08 16:16:00
7:36 AM,37.4,30.2,75,29.66,10.0,SE,10.4,-,N/A,,Overcast,130,2013-01-08 16:36:00
7:56 AM,37.4,30.2,75,29.66,10.0,SSE,6.9,-,N/A,,Overcast,150,2013-01-08 16:56:00
8:16 AM,37.4,30.2,75,29.67,10.0,South,5.8,-,N/A,,Overcast,170,2013-01-08 17:16:00
8:36 AM,37.4,30.2,75,29.67,10.0,SSE,5.8,-,N/A,,Overcast,150,2013-01-08 17:36:00
8:56 AM,37.4,30.2,75,29.66,10.0,SE,8.1,-,N/A,,Overcast,140,2013-01-08 17:56:00
9:16 AM,37.4,30.2,75,29.67,10.0,SE,6.9,-,N/A,,Overcast,140,2013-01-08 18:16:00
9:56 AM,35.6,30.2,81,29.67,6.0,ESE,6.9,-,N/A,,Overcast,120,2013-01-08 18:56:00
10:16 AM,35.6,30.2,81,29.67,9.0,ESE,6.9,-,N/A,,Overcast,110,2013-01-08 19:16:00
10:56 AM,35.6,30.2,81,29.67,10.0,East,3.5,-,N/A,,Overcast,90,2013-01-08 19:56:00
11:16 AM,35.6,30.2,81,29.67,10.0,SE,6.9,-,N/A,,Overcast,130,2013-01-08 20:16:00
11:36 AM,37.4,30.2,75,29.67,10.0,SE,8.1,-,N/A,,Mostly Cloudy,140,2013-01-08 20:36:00
11:56 AM,37.4,30.2,75,29.67,10.0,SSE,5.8,-,N/A,,Overcast,150,2013-01-08 20:56:00
12:16 PM,37.4,30.2,75,29.66,10.0,SSE,6.9,-,N/A,,Overcast,150,2013-01-08 21:16:00
12:36 PM,37.4,30.2,75,29.66,10.0,SE,6.9,-,N/A,,Mostly Cloudy,140,2013-01-08 21:36:00
12:56 PM,37.4,30.2,75,29.66,10.0,SE,6.9,-,N/A,,Mostly Cloudy,130,2013-01-08 21:56:00
1:16 PM,37.4,30.2,75,29.66,10.0,SE,4.6,-,N/A,,Mostly Cloudy,130,2013-01-08 22:16:00
1:36 PM,37.4,30.2,75,29.66,10.0,SSE,6.9,-,N/A,,Overcast,160,2013-01-08 22:36:00
1:56 PM,35.6,30.2,81,29.66,10.0,ESE,4.6,-,N/A,,Overcast,120,2013-01-08 22:56:00
2:16 PM,35.6,30.2,81,29.66,10.0,SE,4.6,-,N/A,,Mostly Cloudy,140,2013-01-08 23:16:00
2:36 PM,35.6,30.2,81,29.66,10.0,Calm,Calm,-,N/A,,Overcast,0,2013-01-08 23:36:00
2:56 PM,35.6,30.2,81,29.66,10.0,Calm,Calm,-,N/A,,Mostly Cloudy,0,2013-01-08 23:56:00
3:16 PM,35.6,30.2,81,29.65,10.0,SE,5.8,-,N/A,,Overcast,130,2013-01-09 00:16:00
3:36 PM,35.6,30.2,81,29.65,10.0,SSE,3.5,-,N/A,,Overcast,150,2013-01-09 00:36:00
3:56 PM,35.6,30.2,81,29.65,10.0,Calm,Calm,-,N/A,,Overcast,0,2013-01-09 00:56:00
4:16 PM,33.8,30.2,87,29.65,10.0,Calm,Calm,-,N/A,,Overcast,0,2013-01-09 01:16:00
4:36 PM,33.8,28.4,81,29.65,10.0,Calm,Calm,-,N/A,,Overcast,0,2013-01-09 01:36:00
4:56 PM,33.8,28.4,81,29.65,10.0,North,3.5,-,N/A,,Overcast,350,2013-01-09 01:56:00
5:16 PM,33.8,28.4,81,29.65,10.0,North,3.5,-,N/A,,Overcast,350,2013-01-09 02:16:00
5:36 PM,33.8,28.4,81,29.65,10.0,NNW,3.5,-,N/A,,Overcast,340,2013-01-09 02:36:00
5:56 PM,33.8,30.2,87,29.65,10.0,NW,4.6,-,N/A,,Overcast,320,2013-01-09 02:56:00
6:16 PM,33.8,30.2,87,29.66,10.0,NNW,4.6,-,N/A,,Overcast,330,2013-01-09 03:16:00
6:36 PM,33.8,28.4,81,29.66,10.0,NNW,3.5,-,N/A,,Overcast,340,2013-01-09 03:36:00
6:56 PM,33.8,28.4,81,29.66,10.0,NNW,3.5,-,N/A,,Mostly Cloudy,340,2013-01-09 03:56:00
7:16 PM,32.0,28.4,87,29.66,10.0,Calm,Calm,-,N/A,,Mostly Cloudy,0,2013-01-09 04:16:00
7:36 PM,32.0,28.4,87,29.67,10.0,NNW,4.6,-,N/A,,Scattered Clouds,330,2013-01-09 04:36:00
7:56 PM,32.0,28.4,87,29.67,10.0,NW,5.8,-,N/A,,Scattered Clouds,320,2013-01-09 04:56:00
8:16 PM,33.8,28.4,81,29.68,0.8,NNW,4.6,-,N/A,,Overcast,330,2013-01-09 05:16:00
8:36 PM,33.8,30.2,87,29.69,9.0,NNW,5.8,-,N/A,,Overcast,330,2013-01-09 05:36:00
8:56 PM,33.8,30.2,87,29.69,8.0,NNW,6.9,-,N/A,,Overcast,340,2013-01-09 05:56:00
9:16 PM,33.8,30.2,87,29.70,7.0,NNW,6.9,-,N/A,,Overcast,340,2013-01-09 06:16:00
9:36 PM,33.8,30.2,87,29.70,5.0,North,6.9,-,N/A,,Overcast,350,2013-01-09 06:36:00
9:56 PM,33.8,30.2,87,29.70,10.0,NNW,6.9,-,N/A,,Mostly Cloudy,330,2013-01-09 06:56:00
10:16 PM,33.8,28.4,81,29.70,10.0,NNW,8.1,-,N/A,,Partly Cloudy,330,2013-01-09 07:16:00
10:36 PM,33.8,28.4,81,29.71,10.0,North,9.2,-,N/A,,Mostly Cloudy,350,2013-01-09 07:36:00
10:56 PM,33.8,28.4,81,29.72,5.0,North,9.2,-,N/A,,Overcast,350,2013-01-09 07:56:00
11:16 PM,33.8,28.4,81,29.72,7.0,NNW,9.2,-,N/A,,Overcast,330,2013-01-09 08:16:00
11:36 PM,32.0,28.4,87,29.73,10.0,NNW,8.1,-,N/A,,Scattered Clouds,340,2013-01-09 08:36:00
11:56 PM,32.0,28.4,87,29.74,10.0,North,3.5,-,N/A,,Clear,10,2013-01-09 08:56:00